Back to catalog

FENGYUN 1C DEB

LostPO
NORAD 37450·DEBRIS·🇨🇳 China

Launched May 10, 1999 from Taiyuan Satellite Launch Center

Loading…

Next Passes (next 24 hours)

TLE

StaleSource: Space-Track

Epoch: Jun 19, 2018, 23:53 UTC

1 37450U 99025EHU 18170.99537878  .00000373  00000-0  29379-3 0  9993
2 37450  97.6946  89.2411 0331629 290.4064  66.1767 13.73624011485712

Track FENGYUN 1C DEB in real time with AllMySat

Download on the App Store